User: anonymous   Login
Location: Caltech
(34.1382°N, 118.1253°W)
Time: 06:43:23
(UTC-07:00)
Language:

JAS-2 - Orbit

View from above orbital plane
View from above orbital plane
View from above satellite
View from above satellite

Ground track
Ground track

The orbit data is extracted from the following two-line orbital elements,

1 24278U 96046B   16177.74843442  .00000021  00000-0  56801-4 0  9993
2 24278  98.5855 101.8455 0350383 180.3061 179.7916 13.53068437980670
Epoch (UTC): 25 June 2016 17:57:44
Eccentricity: 0.0350383
inclination: 98.5855°
perigee height: 800 km
apogee height: 1321 km
right ascension of ascending node: 101.8455°
argument of perigee: 180.3061°
revolutions per day: 13.53068437
mean anomaly at epoch: 179.7916°
orbit number at epoch: 98067

The dashed part of the orbit path shows where the satellite is in the earth's shadow,  

DLR